Starlink 33695

operational
NORAD ID: 63478 Int'l Des: 2025-070 Owner: SPXS Country: US Constellation: starlink
LEOCIRCULAR

About Starlink 33695

Description loading...

Live Position

Loading 3D Globe...

Upcoming Passes

Altitude History

Altitude vs Time

uPlot chart will show altitude changes over time

Two-Line Element Set

1 63478U 25070U 25308.10874865 .00043017 00000-0 15630-2 0 9991
2 63478 42.9996 245.2550 0001612 265.3933 94.6735 15.27593406 33814
Epoch: Nov 4, 2025 • Age: 19 hours

Current Status

Altitude 491.9 km
Velocity 7.62 km/s
Sub-Earth Point -34.96°S, 169.6°W
Launch Date Apr 6, 2025
Age 0.5 years
Type internet

Technical Details

Classification Payload
Mass 575.00 kg
Dry Mass 530.00 kg
Total Mass 575.00 kg
Length 0.30 m
Diameter 4.10 m
Span 29.00 m
Shape Box + pan
Manufacturer SPXS
Bus Type Starlink V2MO
Phase Status In Orbit
Owner/State SPXS/US

Large Constellations

Loading constellations...